www.pogodaiklimat.ru

Погода и климат >> Архив погоды >> Парагвай >> Посо Колорадо


ПОГОДА в Посо Колорадо

  • Прогноз погоды в Посо Колорадо
  • Монитор погоды в Посо Колорадо

АРХИВ ПОГОДЫ в Посо Колорадо

Время (UTC), дата Ветер
(напр.,м/с)
 
Видим.   Явления Облачность Т
(С)
Тd
(С)
f
(%)
Тe
(С)
Тes
(С)
Комфортность P
(гПа)
Po
(гПа)
Тmin
(С)
Tmax
(С)
R
(мм)
R24
(мм)
S
(см)
21 9.01 СВ 5 20 км 4/0
[Ci fib]
+35.0 +21.0 44 +42 +43 опасность
перегрева
1002.2 991.3
00 10.01 СВ 4 20 км 4/0
[Ci fib]
+30.4 +24.1 69 +42 +42 опасность
перегрева
1003.2 992.2 +35.4
03 10.01 С 6 20 км 3/0
[Ci fib]
+29.6 +23.0 68 +40 +40 очень
душно
1005.2 994.2
06 10.01 СВ 5 20 км 3/0
[Ci fib]
+28.6 +23.4 73 +39 +39 очень
душно
1004.4 993.3
09 10.01 С 2 20 км 3/0
[Ci fib]
+26.4 +22.9 81 +35 +35 очень
душно
1005.5 994.3
12 10.01 СВ 4 20 км 4/0
[Ci fib]
+28.4 +23.3 74 +38 +43 очень
душно
1008.0 996.9 +24.4
15 10.01 СВ 5 20 км 5/0
[Cs]
+31.6 +22.1 57 +40 +50 очень
душно
1008.8 997.8
18 10.01 С 4 20 км 4/3 1200 м
[Cu hum Ci fib]
+34.2 +20.6 45 +41 +49 опасность
перегрева
1007.1 996.2
21 10.01 СВ 6 20 км 4/3 1200 м
[Cu hum Ci fib]
+34.0 +20.6 46 +41 +42 опасность
перегрева
1005.1 994.2
00 11.01 СВ 3 20 км 6/0 2000 м
[Ac As]
+30.4 +24.0 69 +42 +42 опасность
перегрева
1006.1 995.0 +35.2
03 11.01 В 6 20 км зарница 9/1 1200 м
[Cb cap Ac As]
+26.0 +23.1 84 +35 +35 очень
душно
1010.4 999.2
06 11.01 Ю 6 20 км зарница {гроза} 10/8 750 м
[Cb cap Ac As]
+21.0 +20.8 99 +26 +26 душно 1011.5 1000.0 8
09 11.01 ЮЗ 3 20 км гроза без осадков 10/8 450 м
[Cb cap Ac As]
+20.8 +20.8 100 +26 +26 душно 1011.5 1000.0 2
12 11.01 ЮВ 3 20 км {дождь} 10/10 450 м
[St]
+21.8 +20.8 94 +28 +28 душно 1013.6 1002.2 +20.4 2
15 11.01 ЮВ 2 20 км 10/10 450 м
[St]
+25.2 +23.2 89 +34 +34 очень
душно
1013.8 1002.4
18 11.01 ЮВ 1 20 км 8/8 750 м
[St]
+27.0 +22.6 77 +36 +40 очень
душно
1012.8 1001.4
21 11.01 штиль 0 20 км дымка 9/4 800 м
[Sc Ci]
+30.0 +2.3 17 +28 +29 жарко 1009.5 998.4
00 12.01 штиль 0 20 км зарница 8/6 800 м
[Cb cap Ac As]
+24.0 +22.4 91 +31 +31 очень
душно
1011.5 1000.1 +31.2
03 12.01 штиль 0 20 км зарница {гроза} 8/5 800 м
[Cb cap Ac As]
+23.6 +22.5 94 +31 +31 очень
душно
1012.7 1001.3
09 12.01 штиль 0 20 км 8/3 840 м
[Cb cap Ac As]
+23.0 +21.5 91 +31 +31 очень
душно
1011.4 1000.0
12 12.01 штиль 0 20 км 5/3 1000 м
[Cu Sc Ac trans]
+26.4 +23.2 83 +36 +41 очень
душно
1013.0 1001.7 +23.0
15 12.01 В 2 20 км 5/4 800 м
[Cu hum Ac trans]
+31.0 +23.8 66 +43 +54 опасность
перегрева
1012.7 1001.7
18 12.01 З 2 20 км 8/6 800 м
[Cu Sc Ci sp]
+29.0 +23.0 70 +39 +45 очень
душно
1010.8 999.7
21 12.01 В 2 20 км {ливн. осадки} 5/4 1200 м
[Cu med, cong Ci sp]
+31.0 +23.8 66 +43 +44 опасность
перегрева
1008.3 997.3 7
00 13.01 штиль 0 20 км {ливн. осадки} 6/5 1000 м
[Cu Sc Ci sp]
+25.4 +13.5 48 +28 +28 жарко 1008.7 997.4 +32.2 2
03 13.01 штиль 0 20 км {ливн. осадки} 6/3 600 м
[Cu Sc Ac trans]
+24.4 +22.4 89 +32 +32 очень
душно
1009.5 998.2 0.2
09 13.01 штиль 0 20 км 4/1 1500 м
[Cu Sc Ac trans]
+24.0 +22.4 91 +31 +31 очень
душно
1010.2 999.2
12 13.01 СВ 2 20 км 5/0
[Ac trans Ci fib]
+27.6 +22.5 74 +36 +42 очень
душно
1011.6 1000.5 +23.5 9
15 13.01 20 км н/о +32.0 +23.3 60 +43 +46 опасность
перегрева
1011.8 1000.8
18 13.01 СВ 6 20 км 5/4 1050 м
[Cu med, cong Ci sp]
+34.0 +23.9 56 +46 +49 опасность
перегрева
1008.8 998.0 1
21 13.01 СВ 3 20 км 5/4 1000 м
[Cu med, cong Ci sp]
+31.2 +23.8 65 +43 +44 опасность
перегрева
1007.7 997.1
03 14.01 штиль 0 20 км 4/0 2000 м
[Ac trans]
+28.6 +23.4 73 +39 +39 очень
душно
1008.9 997.8
12 14.01 СВ 3 20 км 8/0 2000 м
[As trans]
+27.6 +21.5 69 +35 +38 очень
душно
1011.1 1000.0 +23.3 9
15 14.01 С 4 20 км 8/3 1000 м
[Cu hum Cs]
+32.6 +23.2 58 +43 +51 опасность
перегрева
1011.1 1000.3
18 14.01 СВ 4 20 км 8/4 900 м
[Cu hum Cs]
+34.0 +22.6 51 +43 +49 опасность
перегрева
1009.4 998.5
21 14.01 СВ 5 20 км 8/3 1000 м
[Cu Sc Ci]
+34.4 +22.4 50 +44 +44 опасность
перегрева
1008.2 997.3
00 15.01 штиль 0 20 км 5/0
[Cs]
+29.0 +23.2 71 +39 +39 очень
душно
1006.6 995.5 +34.4
09 15.01 СВ 2 20 км 4/0
[Ci fib]
+25.8 +21.6 78 +33 +33 очень
душно
1010.2 999.0
12 15.01 СВ 4 20 км 3/0
[Ci fib]
+29.8 +22.7 66 +39 +44 очень
душно
1010.5 999.4 +25.6
15 15.01 СВ 5 20 км 5/3 1000 м
[Cu hum Ci fib]
+33.0 +22.8 55 +43 +50 опасность
перегрева
1010.7 999.7
18 15.01 СВ 7 20 км 5/3 1000 м
[Cu Sc Ci fib]
+36.0 +21.3 43 +44 +47 опасность
перегрева
1008.2 997.3
21 15.01 СВ 4 20 км 6/3 1000 м
[Cu hum Ci fib]
+36.6 +21.0 40 +43 +44 опасность
перегрева
1006.1 995.3
00 16.01 штиль 0 20 км 5/0
[Ci fib]
+31.2 +22.2 59 +40 +40 очень
душно
1007.0 996.0 +36.8
03 16.01 СВ 2 20 км 5/0
[Ci fib]
+27.6 +22.4 73 +36 +36 очень
душно
1008.1 996.9
06 16.01 СВ 3 20 км 5/0
[Ci fib]
+27.4 +22.4 74 +36 +36 очень
душно
1008.3 997.0
09 16.01 С 4 20 км 5/0
[Ci fib]
+27.0 +22.6 77 +36 +36 очень
душно
1010.0 998.8
12 16.01 СВ 4 20 км 3/0
[Ci fib]
+29.8 +22.6 65 +39 +44 очень
душно
1011.8 1000.7 +26.8
15 16.01 ЮЗ 7 20 км 5/1 1000 м
[Cu hum Ci fib]
+34.6 +22.3 49 +44 +49 опасность
перегрева
1010.9 1000.0
18 16.01 С 4 20 км 5/4 1200 м
[Cu med, cong Ci fib]
+36.6 +22.6 45 +46 +52 опасность
перегрева
1009.7 998.8

 

Местоположение метеостанции Посо Колорадо (Парагвай): широта -23.38 долгота -58.90 высота над уровнем моря 100 м.

В архиве по умолчанию представлена погода в Посо Колорадо за последнюю неделю. Архивные данные за месяц целиком и за предыдущие месяцы, начиная с января 2011 года, Вы можете получить, выбрав интересующий диапазон дат из раскрывающегося списка и нажав кнопку "Ввод!".


*Определитесь, кто Вы:
робот инопланетянин человек

Внимание! Время в таблицах - всемирное. Для получения местного времени необходимо прибавить поправку, которая равна -4 ч.

Смотрите также архив погоды в соседних городах и на ближайших метеорологических станциях:

Погода в Грал Бругуез (Парагвай) (154 км)
Погода в Пуэрто-Касадо (Парагвай) (162 км)
Погода в Консепсьоне (Парагвай) (163 км)
Погода в Сан-Педро (Парагвай) (200 км)
Погода в Лас-Ломитасе (Аргентина) (225 км)
Погода в Марискал-Эстигаре (Парагвай) (232 км)
Погода в Порто Муртиньо (Мату-Гросу-ду-Сул, Бразилия) (233 км)
Погода в Асунсьоне (Парагвай) (251 км)
Погода в Пратс-Гиле (Парагвай) (277 км)
Погода в Сан Эстанислао (Парагвай) (288 км)

Пояснения к столбцам:

Ветер - указаны скорость ветра в м/с - средняя за 10 мин, порывы в срок и между сроками (в фигурных скобках) и направление, откуда дует ветер: С - северный, СВ - северо-восточный, В - восточный, ЮВ - юго-восточный, Ю - южный, ЮЗ - юго-западный, З - западный, СЗ - северо-западный.
Видимость - горизонтальная дальность видимости в метрах или километрах. При видимости от 1 до 10 км при отсутствии осадков обычно наблюдается дымка, при ухудшении видимости до 1 км и менее - туман. В сухую погоду видимость может ухудшаться дымом, пылью или мглою.
Явления - указаны атмосферные явления, наблюдавшиеся в срок или в последний час перед сроком; фигурными скобками обозначены явления, наблюдавшиеся между сроками (за 1-3 часа до срока); квадратными скобками обозначены град или гололедные отложения с указанием их диаметра в мм.
Облачность - указаны через наклонную черту общая и нижняя облачность в баллах и высота нижней границы облаков в метрах; квадратными скобками обозначены формы облаков: Ci - перистые, Cs - перисто-слоистые, Cc - перисто-кучевые, Ac - высококучевые, As - высокослоистые, Sc - слоисто-кучевые, Ns - слоисто-дождевые, Cu - кучевые, Cb - кучево-дождевые. Подробнее классификацию облаков см. в Атласе облаков (PDF).
T - Температура воздуха - температура, измеренная на высоте 2 м над землей.
Td - Температура точки росы - температура, при понижении до которой содержащийся в воздухе водяной пар достигнет насыщения.
f - Относительная влажность воздуха - влажноcть воздуха, измеренная на высоте 2 м над землей.
Te - Эффективная температура - температура, которую ощущает одетый по сезону человек в тени. Характеристика душности погоды. При расчете учитывается влияние влажности воздуха и скорости ветра на теплоощущения человека.
Tes - Эффективная температура на солнце - температура, которую ощущает человек, с поправкой на солнечный нагрев. Характеристика знойности погоды. Зависит от высоты солнца над горизонтом, облачности и скорости ветра. Ночью, в пасмурную погоду, а также при ветре 12 м/с и более поправка равна нулю.
P - Атмосферное давление - приведенное к уровню моря атмосферное давление.
Po - Атмосферное давление - измеренное на уровне метеостанции атмосферное давление.
Tmin - Минимальная температура - минимум температуры воздуха на высоте 2 м над землей.
Tmax - Максимальная температура - максимум температуры воздуха на высоте 2 м над землей.
R - Количество осадков - Количество выпавших осадков за период времени, мм. При наведении курсора мыши на число - период времени, за который выпало указанное количество осадков.
R24 - Количество осадков - Количество выпавших осадков за 24 часа, мм.
S - Снежный покров - Высота снежного покрова, см. При наведении курсора мыши на число - состояние снежного покрова и степень покрытия местности в баллах.